Radiation Dose at Monitoring Post of Fukushima Daini Nuclear Power Station
Date,Time,MP-1(microSv/h),MP-2(microSv/h),MP-3(microSv/h),MP-4(microSv/h),MP-5(microSv/h),MP-6(microSv/h),MP-7(microSv/h),Wind Direction,Wind Velocity(m/s),Rain
2023/05/17,00:00,0.147,0.133,0.211,0.204,0.210,0.118,0.077,south,1.3,No
2023/05/17,00:10,0.148,0.133,0.211,0.203,0.212,0.117,0.077,south-southeast,1.2,No
2023/05/17,00:20,0.147,0.132,0.211,0.204,0.209,0.118,0.076,south,2.1,No
2023/05/17,00:30,0.147,0.133,0.212,0.203,0.211,0.118,0.076,south-southeast,1.8,No
2023/05/17,00:40,0.148,0.132,0.211,0.205,0.212,0.118,0.076,south,2.3,No
2023/05/17,00:50,0.147,0.133,0.211,0.204,0.211,0.118,0.076,south,3.2,No
2023/05/17,01:00,0.148,0.133,0.213,0.205,0.211,0.118,0.076,south,3.8,No
2023/05/17,01:10,0.147,0.133,0.212,0.204,0.211,0.118,0.076,south,4.0,No
2023/05/17,01:20,0.147,0.134,0.211,0.204,0.212,0.119,0.077,south,3.9,No
2023/05/17,01:30,0.147,0.133,0.211,0.205,0.211,0.118,0.077,south,5.0,No
2023/05/17,01:40,0.147,0.133,0.213,0.205,0.212,0.118,0.076,south,4.6,No
2023/05/17,01:50,0.148,0.133,0.212,0.204,0.211,0.119,0.077,south,4.4,No
2023/05/17,02:00,0.147,0.133,0.212,0.205,0.209,0.119,0.077,south-southeast,4.2,No
2023/05/17,02:10,0.147,0.133,0.211,0.204,0.212,0.118,0.077,south-southeast,3.5,No
2023/05/17,02:20,0.148,0.133,0.211,0.204,0.210,0.118,0.076,south-southeast,3.7,No
2023/05/17,02:30,0.146,0.133,0.213,0.204,0.212,0.119,0.077,south-southeast,3.6,No
2023/05/17,02:40,0.148,0.132,0.212,0.205,0.211,0.118,0.077,south-southeast,3.1,No
2023/05/17,02:50,0.148,0.134,0.213,0.205,0.212,0.119,0.077,south-southeast,1.6,No
2023/05/17,03:00,0.148,0.132,0.212,0.204,0.212,0.119,0.077,south-southeast,1.5,No
2023/05/17,03:10,0.148,0.133,0.212,0.204,0.211,0.120,0.077,south-southeast,1.2,No
2023/05/17,03:20,-,-,-,-,-,-,-,-,-,-
2023/05/17,03:30,0.148,0.134,0.213,0.205,0.211,0.119,0.077,south-southeast,0.6,No
2023/05/17,03:40,0.148,0.134,0.213,0.205,0.211,0.118,0.076,-,CALM,No
2023/05/17,03:50,0.148,0.134,0.212,0.205,0.212,0.120,0.077,-,CALM,No
2023/05/17,04:00,0.149,0.134,0.213,0.205,0.212,0.119,0.076,-,CALM,No
2023/05/17,04:10,0.147,0.135,0.214,0.205,0.213,0.119,0.077,-,CALM,No
2023/05/17,04:20,0.149,0.133,0.213,0.206,0.211,0.120,0.077,north,0.8,No
2023/05/17,04:30,0.148,0.133,0.211,0.204,0.211,0.119,0.077,north-northwest,0.8,No
2023/05/17,04:40,0.148,0.134,0.212,0.205,0.212,0.119,0.076,-,CALM,No
2023/05/17,04:50,0.147,0.133,0.213,0.205,0.211,0.119,0.076,north-northwest,0.6,No
2023/05/17,05:00,0.148,0.133,0.211,0.204,0.212,0.118,0.077,north-northwest,0.6,No
2023/05/17,05:10,0.148,0.134,0.212,0.204,0.211,0.119,0.077,north,0.8,No
2023/05/17,05:20,0.147,0.133,0.211,0.205,0.211,0.119,0.077,north-northwest,1.1,No
2023/05/17,05:30,0.148,0.134,0.211,0.204,0.212,0.119,0.077,north-northwest,2.0,No
2023/05/17,05:40,0.149,0.134,0.212,0.205,0.211,0.119,0.077,north,2.8,No
2023/05/17,05:50,0.149,0.134,0.212,0.205,0.212,0.119,0.076,north,3.0,No
2023/05/17,06:00,0.148,0.133,0.211,0.203,0.210,0.118,0.076,north-northwest,1.7,No
2023/05/17,06:10,0.148,0.132,0.212,0.205,0.212,0.118,0.076,north-northwest,1.2,No
2023/05/17,06:20,0.148,0.133,0.212,0.203,0.210,0.118,0.077,northwest,1.9,No
2023/05/17,06:30,0.148,0.133,0.212,0.205,0.211,0.119,0.077,northwest,1.9,No
2023/05/17,06:40,0.147,0.134,0.212,0.202,0.210,0.118,0.077,north-northwest,1.1,No
2023/05/17,06:50,0.148,0.133,0.212,0.205,0.212,0.120,0.077,northwest,0.6,No
2023/05/17,07:00,0.147,0.133,0.211,0.202,0.210,0.119,0.077,-,CALM,Yes
2023/05/17,07:10,0.149,0.133,0.211,0.205,0.212,0.119,0.077,-,CALM,No
2023/05/17,07:20,0.146,0.133,0.213,0.202,0.211,0.118,0.076,west-northwest,0.8,No
2023/05/17,07:30,-,-,-,-,-,-,-,-,-,-
2023/05/17,07:40,0.147,0.134,0.211,0.203,0.211,0.119,0.077,-,CALM,No
2023/05/17,07:50,0.149,0.133,0.211,0.202,0.210,0.119,0.077,east-southeast,0.6,No
2023/05/17,08:00,0.147,0.134,0.211,0.204,0.212,0.118,0.077,south,1.1,No
2023/05/17,08:10,0.149,0.134,0.210,0.204,0.211,0.119,0.077,south,1.5,No
2023/05/17,08:20,0.148,0.132,0.212,0.202,0.209,0.118,0.076,south,2.2,No
2023/05/17,08:30,0.148,0.134,0.211,0.204,0.212,0.117,0.077,south,2.3,No
2023/05/17,08:40,0.147,0.132,0.209,0.204,0.210,0.119,0.076,south-southeast,2.8,No
2023/05/17,08:50,0.146,0.134,0.210,0.203,0.210,0.119,0.077,south,2.8,No
2023/05/17,09:00,0.147,0.134,0.212,0.201,0.213,0.118,0.075,south,3.4,No
2023/05/17,09:10,0.148,0.133,0.212,0.201,0.211,0.119,0.076,south,3.6,No
2023/05/17,09:20,0.146,0.132,0.211,0.206,0.210,0.119,0.077,south-southeast,3.6,No
2023/05/17,09:30,0.147,0.134,0.210,0.203,0.209,0.118,0.077,south-southeast,4.0,No
2023/05/17,09:40,0.147,0.132,0.209,0.203,0.212,-,0.076,south-southeast,3.9,No
2023/05/17,09:50,0.148,0.133,0.209,0.203,0.211,-,0.076,south-southeast,3.8,No
2023/05/17,10:00,0.147,0.133,0.212,0.202,0.211,-,0.076,south-southeast,4.5,No
2023/05/17,10:10,0.146,0.134,0.213,0.201,0.209,-,0.076,south-southeast,5.3,No
2023/05/17,10:20,0.148,0.132,0.212,0.202,0.210,-,0.077,south-southeast,5.4,No
2023/05/17,10:30,0.148,0.132,0.209,0.205,0.212,-,0.076,south-southeast,6.1,No
2023/05/17,10:40,0.146,0.132,0.210,0.205,0.211,-,0.075,south-southeast,6.2,No
2023/05/17,10:50,0.146,0.133,0.210,0.203,0.211,-,0.076,south-southeast,4.7,No
2023/05/17,11:00,0.146,0.133,0.210,0.203,0.209,-,0.076,south-southeast,4.5,No
2023/05/17,11:10,0.144,0.132,0.210,0.204,0.209,-,0.076,south-southeast,5.0,No
2023/05/17,11:20,0.147,0.131,0.210,0.202,0.208,-,0.075,south-southeast,4.3,No
2023/05/17,11:30,0.148,0.133,0.209,0.202,0.208,-,0.075,south-southeast,3.8,No
2023/05/17,11:40,0.148,0.134,0.210,0.202,0.211,-,0.076,south,4.1,No
2023/05/17,11:50,0.145,0.134,0.213,0.203,0.212,-,0.076,south,5.1,No
2023/05/17,12:00,0.146,0.133,0.214,0.206,0.211,-,0.076,south,5.2,No
2023/05/17,12:10,0.145,0.133,0.213,0.206,0.211,-,0.075,south,5.0,No
2023/05/17,12:20,0.146,0.132,0.212,0.205,0.210,-,0.075,south,5.8,No
2023/05/17,12:30,0.146,0.132,0.212,0.205,0.209,-,0.075,south-southeast,8.2,No
2023/05/17,12:40,0.146,0.132,0.212,0.204,0.211,-,0.076,south-southeast,7.9,No
2023/05/17,12:50,0.147,0.133,0.212,0.204,0.210,-,0.076,south-southeast,7.8,No
2023/05/17,13:00,0.147,0.133,0.212,0.203,0.210,-,0.076,south-southeast,8.2,No
2023/05/17,13:10,0.147,0.133,0.212,0.202,0.209,-,0.075,south-southeast,8.6,No
2023/05/17,13:20,0.147,0.132,0.211,0.203,0.210,-,0.076,south-southeast,7.4,No
2023/05/17,13:30,0.147,0.132,0.213,0.204,0.209,-,0.076,south-southeast,5.2,No
2023/05/17,13:40,0.147,0.133,0.213,0.203,0.210,-,0.076,south-southeast,2.4,No
2023/05/17,13:50,0.147,0.132,0.212,0.203,0.209,-,0.076,southeast,1.9,No
2023/05/17,14:00,0.146,0.133,0.211,0.203,0.211,-,0.075,south,1.4,No
2023/05/17,14:10,0.147,0.132,0.213,0.202,0.210,-,0.076,west,1.6,No
2023/05/17,14:20,0.148,0.133,0.211,0.203,0.210,-,0.077,northwest,1.5,No
2023/05/17,14:30,0.147,0.131,0.211,0.203,0.210,-,0.076,west-northwest,3.1,No
2023/05/17,14:40,0.147,0.133,0.213,0.204,0.211,-,0.077,west-northwest,4.9,No
2023/05/17,14:50,0.148,0.133,0.213,0.204,0.211,-,0.076,west-northwest,6.7,No
2023/05/17,15:00,0.147,0.134,0.213,0.204,0.211,-,0.077,west-northwest,8.1,No
2023/05/17,15:10,0.148,0.135,0.214,0.205,0.213,-,0.077,west-northwest,6.3,No
2023/05/17,15:20,0.148,0.134,0.213,0.205,0.214,-,0.076,west,7.2,No
2023/05/17,15:30,0.148,0.134,0.212,0.205,0.214,-,0.076,west-northwest,5.9,No
2023/05/17,15:40,0.149,0.135,0.212,0.207,0.214,-,0.077,west-northwest,6.8,No
2023/05/17,15:50,0.148,0.134,0.213,0.206,0.213,-,0.076,west-northwest,5.9,No
2023/05/17,16:00,0.148,0.135,0.213,0.206,0.212,-,0.076,northwest,8.1,No
2023/05/17,16:10,0.149,0.134,0.212,0.205,0.212,-,0.076,west-northwest,5.8,No
2023/05/17,16:20,0.150,0.135,0.213,0.205,0.212,0.118,0.076,west,6.5,No
2023/05/17,16:30,0.148,0.134,0.212,0.205,0.211,0.119,0.077,west-northwest,6.9,No
2023/05/17,16:40,0.148,0.134,0.213,0.205,0.212,0.118,0.076,west,8.1,No
2023/05/17,16:50,0.148,0.133,0.212,0.205,0.210,0.119,0.076,west-northwest,6.5,No
2023/05/17,17:00,0.148,0.134,0.212,0.205,0.211,0.120,0.076,west,6.0,No
2023/05/17,17:10,0.148,0.134,0.211,0.205,0.210,0.119,0.075,west,6.8,No
2023/05/17,17:20,0.148,0.133,0.212,0.204,0.209,0.118,0.076,west,8.3,No
2023/05/17,17:30,0.148,0.133,0.215,0.203,0.209,0.118,0.076,west,6.7,No
2023/05/17,17:40,0.147,0.133,0.215,0.207,0.209,0.118,0.076,west-northwest,4.7,No
2023/05/17,17:50,0.148,0.134,0.213,0.207,0.208,0.119,0.076,west-northwest,4.2,No
2023/05/17,18:00,0.147,0.135,0.211,0.206,0.210,0.118,0.076,west,6.2,No
2023/05/17,18:10,0.148,0.134,0.214,0.205,0.209,0.118,0.077,west-northwest,6.7,No
2023/05/17,18:20,0.150,0.134,0.216,0.203,0.209,0.119,0.076,west,7.8,No
2023/05/17,18:30,0.150,0.135,0.213,0.207,0.209,0.119,0.076,west,5.4,No
2023/05/17,18:40,0.147,0.134,0.212,0.206,0.214,0.119,0.077,west,6.4,No
2023/05/17,18:50,0.148,0.133,0.215,0.205,0.212,0.119,0.076,west,6.5,No
2023/05/17,19:00,0.149,0.134,0.215,0.206,0.210,0.118,0.077,west-northwest,6.5,No
2023/05/17,19:10,0.148,0.135,0.214,0.207,0.212,0.117,0.078,west-northwest,7.2,No
2023/05/17,19:20,0.148,0.133,0.215,0.206,0.212,0.119,0.076,west-northwest,6.1,No
2023/05/17,19:30,0.148,0.135,0.214,0.206,0.211,0.119,0.077,west-northwest,7.0,No
2023/05/17,19:40,0.151,0.134,0.213,0.208,0.211,0.119,0.077,west-northwest,6.8,No
2023/05/17,19:50,0.149,0.134,0.215,0.205,0.215,0.119,0.076,west-northwest,6.3,No
2023/05/17,20:00,0.148,0.135,0.214,0.206,0.213,0.119,0.077,west-northwest,5.6,No
2023/05/17,20:10,0.149,0.134,0.215,0.209,0.211,0.119,0.076,west-northwest,6.8,No
2023/05/17,20:20,0.148,0.134,0.214,0.207,0.214,0.119,0.077,west-northwest,6.2,No
2023/05/17,20:30,0.149,0.134,0.214,0.206,0.212,0.119,0.076,west-northwest,7.0,No
2023/05/17,20:40,0.150,0.135,0.215,0.207,0.211,0.118,0.076,west,6.5,No
2023/05/17,20:50,0.149,0.134,0.214,0.204,0.214,0.119,0.076,west-northwest,6.0,No
2023/05/17,21:00,0.150,0.133,0.215,0.207,0.212,0.120,0.077,west-northwest,7.0,No
2023/05/17,21:10,0.149,0.134,0.214,0.207,0.211,0.120,0.076,west-northwest,6.1,No
2023/05/17,21:20,0.148,0.133,0.215,0.206,0.213,0.119,0.077,west-northwest,5.6,No
2023/05/17,21:30,0.149,0.134,0.215,0.207,0.212,0.119,0.076,west-northwest,4.5,No
2023/05/17,21:40,0.149,0.134,0.214,0.207,0.211,0.119,0.077,west-northwest,4.0,No
2023/05/17,21:50,0.148,0.134,0.215,0.206,0.213,0.119,0.076,west-northwest,4.1,No
2023/05/17,22:00,0.149,0.135,0.214,0.207,0.211,0.118,0.077,west-northwest,4.3,No
2023/05/17,22:10,0.149,0.134,0.216,0.206,0.213,0.120,0.076,west-northwest,4.5,No
2023/05/17,22:20,0.148,0.134,0.214,0.207,0.212,0.119,0.077,northwest,3.1,No
2023/05/17,22:30,0.149,0.135,0.216,0.207,0.210,0.119,0.076,west-northwest,2.1,No
2023/05/17,22:40,0.149,0.135,0.213,0.207,0.214,0.118,0.078,northwest,1.3,No
2023/05/17,22:50,0.148,0.134,0.215,0.206,0.211,0.120,0.077,northwest,2.6,No
2023/05/17,23:00,0.149,0.133,0.214,0.207,0.212,0.119,0.077,northwest,3.9,No
2023/05/17,23:10,0.149,0.134,0.216,0.206,0.213,0.120,0.077,west-northwest,4.3,No
2023/05/17,23:20,0.149,0.134,0.214,0.206,0.211,0.119,0.077,northwest,3.9,No
2023/05/17,23:30,0.150,0.135,0.216,0.206,0.215,0.120,0.077,west-northwest,3.6,No
2023/05/17,23:40,0.149,0.134,0.214,0.207,0.210,0.119,0.078,west,4.3,No
2023/05/17,23:50,0.150,0.135,0.216,0.205,0.214,0.119,0.076,west,6.0,No
